GORIZONT 21 [-]

Last updated on Mon Jun 26 2023 00:02:57 GMT+0000 (Coordinated Universal Time)

1 20923U 90094A 23176.27132816 -.00000163 00000+0 00000+0 0 9996 2 20923 13.7666 344.7860 0005209 197.2923 168.9659 1.00298762119536
UTC large
Height (km)
Speed (km/s)
/
Latitude / Longitude
Inclination (degrees)
Orbital Period (minutes)
Azimuth
Elevation
Range (km)
Doppler Factor

Next 0 passes for location: London (51.5072 / 0.1276)

Sorry there are no passes over London.
GORIZONT 21 [-]